Location: *
(45.4590°N, 16.3650°E)
Time: 08:52:10
(UTC+00:00)

CZ-4C R/B - Pass Details

Date: 17 January 2020
Orbit: 644 x 1358 km, 63.4° (Epoch: 27 February)

Event Time Altitude Azimuth Distance (km) Brightness Sun altitude
Rises 18:41:30 0° 316° (NW) 3,910 6.2 -31.4°
Reaches altitude 10° 18:44:12 10° 309° (NW) 3,047 5.7 -31.9°
Maximum altitude 18:51:00 40° 244° (WSW) 1,781 4.1 -33.1°
Drops below altitude 10° 18:58:32 10° 179° (S) 3,372 5.2 -34.4°
Enters shadow 19:00:07 - 175° (S) 3,867 5.5 -34.7°
